This is the latest recevied weather packets stored in our database for station/object K5UBE. If no packets are shown the sender has not sent any weather packets the latest 10 day(s).
| Time | Temp. | Humidity | Pressure | Rain* | Wind** | Luminosity | Snow |
|---|---|---|---|---|---|---|---|
| 1778021021 | 25° C | 26% | 1009.6 hPa | 0 mm | - | - | - |
| 1778020718 | 25° C | 26% | 1009.7 hPa | 0 mm | - | - | - |
| 1778020415 | 25.56° C | 25% | 1009.8 hPa | 0 mm | - | - | - |
| 1778020110 | 25° C | 26% | 1009.6 hPa | 0 mm | - | - | - |
| 1778019807 | 25° C | 27% | 1009.7 hPa | 0 mm | - | - | - |
| 1778019504 | 24.44° C | 27% | 1009.9 hPa | 0 mm | - | - | - |
| 1778019200 | 24.44° C | 27% | 1009.9 hPa | 0 mm | - | - | - |
| 1778018898 | 25° C | 27% | 1009.9 hPa | 0 mm | - | - | - |
| 1778018595 | 24.44° C | 28% | 1010.4 hPa | 0 mm | - | - | - |
| 1778018293 | 24.44° C | 27% | 1010.3 hPa | 0 mm | - | - | - |
| 1778017990 | 23.89° C | 29% | 1010.3 hPa | 0 mm | - | - | - |
| 1778017688 | 24.44° C | 28% | 1010.4 hPa | 0 mm | - | - | - |
| 1778017385 | 24.44° C | 27% | 1010.4 hPa | 0 mm | - | - | - |
| 1778017082 | 25° C | 27% | 1010.6 hPa | 0 mm | - | - | - |
| 1778016780 | 23.89° C | 29% | 1010.6 hPa | 0 mm | - | - | - |
| 1778016475 | 24.44° C | 28% | 1010.5 hPa | 0 mm | - | - | - |
| 1778016173 | 24.44° C | 28% | 1010.6 hPa | 0 mm | - | - | - |
| 1778015870 | 24.44° C | 28% | 1010.7 hPa | 0 mm | - | - | - |
| 1778015567 | 24.44° C | 29% | 1010.9 hPa | 0 mm | - | - | - |
| 1778015263 | 24.44° C | 28% | 1011 hPa | 0 mm | - | - | - |
| 1778014960 | 24.44° C | 29% | 1011.3 hPa | 0 mm | - | - | - |
| 1778014657 | 24.44° C | 28% | 1011.3 hPa | 0 mm | - | - | - |
| 1778014356 | 24.44° C | 28% | 1011.5 hPa | 0 mm | - | - | - |
| 1778014052 | 24.44° C | 28% | 1011.2 hPa | 0 mm | - | - | - |
| 1778013750 | 23.89° C | 28% | 1011.5 hPa | 0 mm | - | - | - |
* Rain latest hour (hover to see other rain measurements)
** Current wind speed in m/s (hover to see current wind gust speed)